"startDT [UTC]","vpos","CH4 [ppm]","stdev(CH4) [ppm]","CO2 [ppm]","stdev(CO2) [ppm]","H2O [ppm]","stdev(H2O)","p_LGR [torr]","T_LGR [C]","mt1_LGR [us]","mt2_LGR [us]","T_ECpre [C]","T_EC1 [C]","T_EC2 [C]","p_inlet [hPa]","p_in [hPa]","p_out [hPa]","T_inlet [C]","RH_inlet [%]","dwpt_inlet [C]","T_vent [C]","RH_vent [%]","dwpt_vent [C]","flow_vent [l min-1]","flow_inlet [l min-1]","dwpt_sample [C]","T_room [C]"
2013-03-16 00:00:00,0.0,1.9380,0.0010,405.73,0.29,-1.0,0.0,138.08,29.81,24.66,36.42,0.04,-272.75,-272.76,-46,557,-941,22.9,0.7,-39.2,23.1,0.7,-38.9,5.73,2.39,-35.7,28.3
2013-03-16 00:01:00,0.0,1.9377,0.0011,405.72,0.32,-1.0,0.0,138.08,29.81,24.65,36.41,0.04,-272.76,-272.76,-46,557,-941,22.9,0.7,-39.3,23.1,0.7,-38.9,5.73,2.40,-35.7,28.3
2013-03-16 00:02:00,0.0,1.9371,0.0012,405.66,0.29,-1.0,0.0,138.08,29.81,24.65,36.42,0.04,-272.76,-272.76,-46,557,-942,22.9,0.7,-39.4,23.1,0.7,-38.9,5.73,2.41,-35.6,28.3
2013-03-16 00:03:00,0.0,1.9372,0.0011,405.84,0.32,-1.0,0.0,138.08,29.80,24.66,36.42,0.04,-272.75,-272.76,-46,557,-942,22.9,0.7,-39.2,23.1,0.7,-38.9,5.73,2.42,-35.6,28.3
2013-03-16 00:04:00,0.0,1.9374,0.0010,405.81,0.27,-1.0,0.0,138.08,29.80,24.65,36.41,0.04,-272.75,-272.75,-46,557,-942,22.9,0.7,-39.4,23.1,0.7,-38.8,5.73,2.43,-35.6,28.3
2013-03-16 00:05:00,0.0,1.9376,0.0010,405.67,0.28,-1.0,0.0,138.08,29.79,24.65,36.42,0.04,-272.76,-272.76,-46,557,-942,22.9,0.7,-39.2,23.1,0.7,-38.9,5.73,2.43,-35.6,28.3
2013-03-16 00:06:00,0.0,1.9375,0.0011,405.77,0.31,-1.0,0.0,138.08,29.79,24.65,36.42,0.04,-272.76,-272.75,-46,557,-941,22.9,0.7,-39.3,23.1,0.7,-38.8,5.73,2.43,-35.6,28.3
2013-03-16 00:07:00,0.0,1.9373,0.0011,405.73,0.30,-1.0,0.0,138.08,29.78,24.65,36.41,0.04,-272.75,-272.75,-46,557,-941,22.9,0.7,-39.3,23.1,0.7,-38.9,5.73,2.42,-35.6,28.3
2013-03-16 00:08:00,0.0,1.9377,0.0010,405.73,0.28,-1.0,0.0,138.08,29.78,24.65,36.42,0.04,-272.75,-272.75,-46,557,-942,22.9,0.7,-39.3,23.1,0.7,-38.9,5.73,2.40,-35.6,28.3
2013-03-16 00:09:00,0.0,1.9375,0.0009,405.64,0.32,-1.0,0.0,138.08,29.77,24.65,36.42,0.04,-272.75,-272.76,-46,557,-942,22.9,0.7,-39.2,23.1,0.7,-38.9,5.73,2.39,-35.5,28.3
2013-03-16 00:10:00,0.0,1.9371,0.0010,405.83,0.30,-1.0,0.0,138.08,29.77,24.65,36.42,0.04,-272.75,-272.76,-46,557,-942,22.9,0.7,-39.2,23.1,0.7,-38.8,5.73,2.38,-35.6,28.3
2013-03-16 00:11:00,0.0,1.9384,0.0010,405.91,0.32,-1.0,0.0,138.08,29.76,24.65,36.41,0.04,-272.75,-272.75,-46,557,-942,22.9,0.7,-39.3,23.1,0.8,-38.8,5.73,2.38,-35.5,28.3
2013-03-16 00:12:00,0.0,1.9373,0.0010,405.69,0.34,-1.0,0.0,138.08,29.75,24.65,36.42,0.04,-272.75,-272.76,-46,557,-941,22.9,0.7,-39.3,23.1,0.8,-38.5,5.73,2.38,-35.5,28.3
2013-03-16 00:13:00,0.0,1.9373,0.0012,405.79,0.33,-1.0,0.0,138.08,29.75,24.65,36.42,0.04,-272.75,-272.76,-46,558,-941,22.9,0.7,-39.0,23.1,0.8,-38.5,5.73,2.40,-35.5,28.3
2013-03-16 00:14:00,0.0,1.9381,0.0010,405.72,0.31,-1.0,0.0,138.08,29.74,24.65,36.42,0.04,-272.75,-272.75,-46,557,-941,22.9,0.7,-39.0,23.1,0.8,-38.5,5.73,2.41,-35.5,28.3
2013-03-16 00:15:00,0.0,1.9379,0.0011,405.68,0.29,-1.0,0.0,138.08,29.74,24.65,36.42,0.04,-272.75,-272.75,-47,557,-941,22.9,0.7,-38.9,23.1,0.8,-38.5,5.73,2.42,-35.5,28.3
2013-03-16 00:16:00,0.0,1.9382,0.0011,405.69,0.30,-1.0,0.0,138.08,29.73,24.65,36.42,0.04,-272.75,-272.75,-47,557,-942,22.9,0.8,-38.9,23.1,0.8,-38.5,5.73,2.43,-35.5,28.3
2013-03-16 00:17:00,0.0,1.9380,0.0011,405.71,0.26,-1.0,0.0,138.08,29.73,24.65,36.42,0.04,-272.75,-272.76,-46,557,-942,22.9,0.8,-38.8,23.1,0.8,-38.4,5.73,2.43,-35.4,28.3
2013-03-16 00:18:00,0.0,1.9385,0.0010,405.69,0.33,-1.0,0.0,138.08,29.73,24.65,36.41,0.04,-272.76,-272.75,-46,557,-942,22.9,0.8,-38.5,23.1,0.8,-38.2,5.73,2.42,-35.4,28.3
2013-03-16 00:19:00,0.0,1.9385,0.0011,405.78,0.24,-1.0,0.0,138.08,29.72,24.65,36.41,0.04,-272.76,-272.76,-46,557,-941,22.9,0.8,-38.5,23.1,0.8,-38.0,5.73,2.41,-35.4,28.3
2013-03-16 00:20:00,0.0,1.9384,0.0010,405.82,0.30,-1.0,0.0,138.08,29.72,24.65,36.41,0.04,-272.75,-272.76,-46,557,-941,22.9,0.8,-38.2,23.1,0.8,-37.8,5.73,2.39,-35.4,28.3
2013-03-16 00:21:00,0.0,1.9387,0.0009,405.76,0.30,-1.0,0.0,138.08,29.71,24.65,36.41,0.04,-272.75,-272.75,-46,557,-941,22.9,0.8,-38.0,23.1,0.8,-37.6,5.73,2.39,-35.4,28.3
2013-03-16 00:22:00,0.0,1.9386,0.0010,405.79,0.27,-1.0,0.0,138.08,29.71,24.65,36.41,0.04,-272.75,-272.75,-47,557,-941,22.9,0.8,-37.8,23.1,0.9,-37.4,5.73,2.39,-35.4,28.3
2013-03-16 00:23:00,0.0,1.9384,0.0010,405.72,0.31,-1.0,0.0,138.08,29.70,24.65,36.41,0.04,-272.75,-272.75,-47,557,-942,22.9,0.9,-37.5,23.1,0.9,-37.2,5.73,2.38,-35.4,28.3
2013-03-16 00:24:00,0.0,1.9390,0.0012,405.67,0.27,-1.0,0.0,138.08,29.70,24.65,36.42,0.04,-272.76,-272.75,-47,557,-942,22.9,0.9,-37.5,23.1,0.9,-36.9,5.73,2.39,-35.3,28.3
2013-03-16 00:25:00,0.0,1.9381,0.0010,405.66,0.28,-1.0,0.0,138.08,29.70,24.65,36.41,0.04,-272.76,-272.75,-46,557,-942,22.9,0.9,-37.3,23.1,0.9,-36.9,5.73,2.40,-35.3,28.3
2013-03-16 00:26:00,0.0,1.9386,0.0011,405.71,0.27,-1.0,0.0,138.08,29.69,24.65,36.42,0.04,-272.76,-272.76,-46,557,-942,22.9,0.9,-37.3,23.1,0.9,-36.8,5.73,2.41,-35.3,28.3
2013-03-16 00:27:00,0.0,1.9383,0.0009,405.73,0.31,-1.0,0.0,138.08,29.69,24.65,36.42,0.04,-272.75,-272.75,-46,557,-941,22.9,0.9,-37.2,23.1,0.9,-36.6,5.73,2.42,-35.3,28.3
2013-03-16 00:28:00,0.0,1.9377,0.0008,405.67,0.29,-1.0,0.0,138.08,29.68,24.65,36.42,0.04,-272.76,-272.75,-46,557,-941,22.9,0.9,-36.9,23.1,0.9,-36.6,5.73,2.43,-35.3,28.3
2013-03-16 00:29:00,0.0,1.9378,0.0010,405.75,0.27,-1.0,0.0,138.08,29.68,24.65,36.42,0.04,-272.75,-272.75,-47,557,-941,22.9,0.9,-37.0,23.1,0.9,-36.6,5.73,2.43,-35.3,28.3
2013-03-16 00:30:00,0.0,1.9381,0.0011,405.75,0.29,-1.0,0.0,138.08,29.68,24.65,36.41,0.04,-272.76,-272.75,-47,557,-942,22.9,0.9,-37.0,23.1,0.9,-36.6,5.73,2.42,-35.3,28.3
2013-03-16 00:31:00,0.0,1.9378,0.0010,405.83,0.25,-1.0,0.0,138.08,29.68,24.65,36.41,0.04,-272.76,-272.76,-47,557,-942,22.9,0.9,-37.0,23.1,0.9,-36.6,5.73,2.41,-35.2,28.3
2013-03-16 00:32:00,0.0,1.9377,0.0011,405.77,0.24,-1.0,0.0,138.08,29.67,24.66,36.42,0.04,-272.76,-272.76,-47,557,-942,22.9,0.9,-37.0,23.1,0.9,-36.6,5.73,2.40,-35.2,28.3
2013-03-16 00:33:00,0.0,1.9376,0.0009,405.70,0.30,-1.0,0.0,138.08,29.67,24.66,36.42,0.04,-272.76,-272.76,-46,557,-942,22.9,0.9,-37.0,23.1,0.9,-36.6,5.73,2.39,-35.2,28.3
2013-03-16 00:34:00,0.0,1.9387,0.0010,405.81,0.34,-1.0,0.0,138.08,29.67,24.65,36.41,0.04,-272.76,-272.76,-46,557,-941,22.9,0.9,-37.0,23.1,1.0,-36.4,5.73,2.39,-35.2,28.3
2013-03-16 00:35:00,0.0,1.9385,0.0010,405.69,0.29,-1.0,0.0,138.08,29.66,24.66,36.42,0.04,-272.76,-272.76,-46,557,-941,22.9,0.9,-37.0,23.1,1.0,-36.4,5.73,2.38,-35.2,28.3
2013-03-16 00:36:00,0.0,1.9399,0.0010,405.63,0.30,-1.0,0.0,138.08,29.66,24.65,36.42,0.04,-272.76,-272.76,-47,557,-941,22.9,0.9,-36.9,23.1,1.0,-36.3,5.73,2.39,-35.1,28.3
2013-03-16 00:37:00,0.0,1.9394,0.0012,405.81,0.30,-1.0,0.0,138.08,29.66,24.65,36.41,0.04,-272.76,-272.76,-47,557,-942,22.9,0.9,-36.9,23.1,1.0,-36.3,5.73,2.40,-35.1,28.3
2013-03-16 00:38:00,0.0,1.9390,0.0014,405.73,0.27,-1.0,0.0,138.08,29.65,24.65,36.42,0.04,-272.75,-272.76,-47,557,-942,22.9,0.9,-37.0,23.1,1.0,-36.4,5.73,2.41,-35.1,28.3
2013-03-16 00:39:00,0.0,1.9394,0.0012,405.71,0.29,-1.0,0.0,138.08,29.65,24.65,36.41,0.04,-272.76,-272.76,-47,557,-942,22.9,0.9,-36.8,23.1,1.0,-36.3,5.73,2.42,-35.1,28.3
2013-03-16 00:40:00,0.0,1.9389,0.0011,405.78,0.26,-1.0,0.0,138.08,29.65,24.65,36.41,0.04,-272.75,-272.76,-46,557,-942,22.9,0.9,-37.0,23.1,1.0,-36.4,5.73,2.43,-35.1,28.3
2013-03-16 00:41:00,0.0,1.9387,0.0010,405.71,0.29,-1.0,0.0,138.08,29.64,24.66,36.42,0.04,-272.76,-272.75,-46,557,-941,22.9,0.9,-37.0,23.1,1.0,-36.4,5.73,2.43,-35.0,28.3
2013-03-16 00:42:00,0.0,1.9394,0.0011,405.78,0.20,-1.0,0.0,138.08,29.64,24.65,36.42,0.04,-272.76,-272.76,-46,557,-941,22.9,0.9,-37.0,23.1,0.9,-36.6,5.73,2.43,-35.0,28.3
2013-03-16 00:43:00,0.0,1.9393,0.0010,405.73,0.32,-1.0,0.0,138.08,29.64,24.65,36.42,0.04,-272.75,-272.76,-46,557,-942,22.9,0.9,-36.8,23.1,1.0,-36.4,5.73,2.42,-35.0,28.3
2013-03-16 00:44:00,0.0,1.9399,0.0009,405.73,0.26,-1.0,0.0,138.08,29.64,24.65,36.42,0.04,-272.75,-272.76,-47,557,-942,22.9,0.9,-36.9,23.1,0.9,-36.6,5.73,2.41,-35.0,28.3
2013-03-16 00:45:00,0.0,1.9395,0.0011,405.77,0.27,-1.0,0.0,138.08,29.63,24.66,36.42,0.04,-272.75,-272.76,-47,557,-942,22.9,0.9,-37.0,23.1,0.9,-36.6,5.73,2.40,-35.0,28.2
2013-03-16 00:46:00,0.0,1.9399,0.0010,405.69,0.27,-1.0,0.0,138.08,29.63,24.65,36.42,0.04,-272.75,-272.76,-47,557,-942,22.9,0.9,-37.3,23.1,0.9,-36.7,5.73,2.39,-34.9,28.2
2013-03-16 00:47:00,0.0,1.9399,0.0009,405.70,0.29,-1.0,0.0,138.08,29.63,24.65,36.42,0.04,-272.76,-272.75,-46,557,-941,22.9,0.9,-37.4,23.1,0.9,-36.9,5.73,2.38,-34.9,28.3
2013-03-16 00:48:00,0.0,1.9400,0.0011,405.77,0.31,-1.0,0.0,138.08,29.62,24.65,36.42,0.04,-272.76,-272.75,-46,557,-941,22.9,0.9,-37.5,23.1,0.9,-36.9,5.73,2.38,-34.9,28.2
2013-03-16 00:49:00,0.0,1.9400,0.0011,405.80,0.29,-1.0,0.0,138.08,29.62,24.65,36.41,0.04,-272.76,-272.75,-46,557,-941,22.9,0.9,-37.2,23.1,0.9,-36.9,5.73,2.39,-34.9,28.3
2013-03-16 00:50:00,0.0,1.9401,0.0010,405.78,0.29,-1.0,0.0,138.08,29.62,24.65,36.42,0.04,-272.75,-272.75,-46,557,-942,22.9,1.0,-35.7,23.1,1.1,-35.2,5.73,2.40,-34.8,28.3
2013-03-16 00:51:00,0.0,1.9400,0.0009,405.84,0.33,-1.0,0.0,138.08,29.62,24.65,36.41,0.04,-272.76,-272.75,-46,557,-942,22.9,0.9,-37.0,23.1,0.9,-36.5,5.73,2.40,-34.9,28.3
2013-03-16 00:52:00,0.0,1.9401,0.0011,405.83,0.26,-1.0,0.0,138.08,29.61,24.65,36.41,0.04,-272.76,-272.76,-47,557,-942,22.9,0.9,-37.1,23.1,0.9,-36.6,5.73,2.42,-34.8,28.3
2013-03-16 00:53:00,0.0,1.9401,0.0009,405.78,0.27,-1.0,0.0,138.08,29.61,24.65,36.41,0.04,-272.76,-272.76,-47,557,-942,22.9,0.9,-36.9,23.1,0.9,-36.6,5.73,2.42,-34.8,28.3
2013-03-16 00:54:00,0.0,1.9399,0.0010,405.75,0.30,-1.0,0.0,138.08,29.61,24.65,36.42,0.04,-272.75,-272.76,-47,557,-941,22.9,0.9,-37.0,23.1,0.9,-36.6,5.73,2.43,-34.8,28.3
2013-03-16 00:55:00,0.0,1.9398,0.0008,405.76,0.26,-1.0,0.0,138.08,29.60,24.65,36.41,0.04,-272.76,-272.76,-46,557,-941,22.9,0.9,-36.9,23.1,1.0,-36.3,5.73,2.43,-34.8,28.3
2013-03-16 00:56:00,0.0,1.9396,0.0010,405.69,0.34,-1.0,0.0,138.08,29.60,24.65,36.42,0.04,-272.75,-272.76,-46,557,-941,22.9,0.9,-36.6,23.1,1.0,-36.1,5.73,2.42,-34.7,28.2
2013-03-16 00:57:00,0.0,1.9396,0.0011,405.72,0.25,-1.0,0.0,138.08,29.59,24.65,36.42,0.04,-272.76,-272.75,-46,557,-942,22.9,1.0,-36.5,23.1,1.0,-36.1,5.73,2.41,-34.7,28.3
2013-03-16 00:58:00,0.0,1.9398,0.0011,405.74,0.33,-0.4,4.6,138.08,29.59,24.65,36.42,0.04,-272.76,-272.76,-46,557,-942,22.9,1.0,-36.4,23.1,1.0,-36.1,5.73,2.40,-34.6,28.2
2013-03-16 00:59:00,0.0,1.9396,0.0010,405.69,0.28,-1.0,0.0,138.08,29.59,24.65,36.42,0.04,-272.76,-272.76,-47,557,-942,22.9,1.0,-36.4,23.1,1.0,-35.8,5.73,2.39,-34.7,28.2
2013-03-16 01:00:00,0.0,1.9396,0.0011,405.80,0.33,-1.0,0.0,138.08,29.58,24.65,36.41,0.04,-272.76,-272.75,-47,557,-942,22.9,1.0,-36.1,23.1,1.0,-35.8,5.73,2.39,-34.6,28.2
2013-03-16 01:01:00,0.0,1.9398,0.0011,405.70,0.30,-1.0,0.0,138.08,29.58,24.65,36.42,0.04,-272.75,-272.76,-47,557,-941,23.0,1.0,-36.1,23.1,1.0,-35.8,5.73,2.38,-34.6,28.2
2013-03-16 01:02:00,0.0,1.9396,0.0009,405.79,0.28,-1.0,0.0,138.08,29.58,24.65,36.41,0.04,-272.75,-272.76,-46,557,-941,23.0,1.0,-36.0,23.1,1.0,-35.5,5.73,2.39,-34.6,28.2
2013-03-16 01:03:00,0.0,1.9397,0.0011,405.75,0.34,-1.0,0.0,138.08,29.57,24.65,36.41,0.04,-272.76,-272.76,-46,557,-941,22.9,1.0,-35.8,23.1,1.0,-35.5,5.73,2.40,-34.6,28.2
2013-03-16 01:04:00,0.0,1.9391,0.0010,405.63,0.28,-1.0,0.0,138.08,29.57,24.65,36.42,0.04,-272.75,-272.75,-46,557,-941,23.0,1.0,-35.7,23.1,1.1,-35.5,5.73,2.41,-34.6,28.2
2013-03-16 01:05:00,0.0,1.9391,0.0010,405.75,0.29,-1.0,0.0,138.08,29.56,24.65,36.42,0.04,-272.75,-272.76,-46,557,-942,22.9,1.0,-35.8,23.1,1.1,-35.4,5.73,2.42,-34.6,28.3
2013-03-16 01:06:00,0.0,1.9395,0.0010,405.83,0.29,-1.0,0.0,138.08,29.56,24.65,36.41,0.04,-272.76,-272.75,-47,557,-942,23.0,1.0,-35.8,23.1,1.1,-35.2,5.73,2.43,-34.6,28.2
2013-03-16 01:07:00,0.0,1.9397,0.0010,405.82,0.26,-1.0,0.0,138.08,29.55,24.65,36.41,0.04,-272.75,-272.75,-47,557,-942,22.9,1.0,-35.8,23.1,1.1,-35.2,5.73,2.43,-34.5,28.2
2013-03-16 01:08:00,0.0,1.9396,0.0010,405.77,0.27,-1.0,0.0,138.08,29.55,24.65,36.42,0.04,-272.76,-272.76,-47,557,-941,23.0,1.0,-35.8,23.1,1.1,-35.3,5.73,2.43,-34.5,28.2
2013-03-16 01:09:00,0.0,1.9394,0.0010,405.76,0.26,-1.0,0.0,138.08,29.55,24.65,36.41,0.04,-272.76,-272.76,-47,557,-941,22.9,1.0,-35.8,23.1,1.1,-35.3,5.73,2.42,-34.5,28.3
2013-03-16 01:10:00,0.0,1.9402,0.0009,405.72,0.28,-1.0,0.0,138.08,29.54,24.65,36.42,0.04,-272.76,-272.76,-46,557,-941,22.9,1.0,-35.8,23.0,1.1,-35.5,5.73,2.40,-34.5,28.2
2013-03-16 01:11:00,0.0,1.9405,0.0009,405.70,0.25,-1.0,0.0,138.09,29.54,24.65,36.41,0.04,-272.75,-272.75,-46,557,-941,22.9,1.0,-36.1,23.1,1.0,-35.5,5.73,2.40,-34.5,28.3
2013-03-16 01:12:00,0.0,1.9404,0.0011,405.68,0.32,-1.0,0.0,138.09,29.54,24.66,36.41,0.04,-272.75,-272.76,-46,557,-942,23.0,1.0,-36.1,23.1,1.0,-35.5,5.73,2.39,-34.5,28.2
2013-03-16 01:13:00,0.0,1.9410,0.0010,405.69,0.28,-1.0,0.0,138.08,29.54,24.65,36.42,0.04,-272.76,-272.75,-47,557,-942,22.9,1.0,-36.1,23.1,1.1,-35.5,5.73,2.39,-34.4,28.2
2013-03-16 01:14:00,0.0,1.9407,0.0009,405.67,0.29,-1.0,0.0,138.09,29.54,24.65,36.42,0.04,-272.75,-272.75,-47,558,-942,22.9,1.0,-36.1,23.1,1.0,-35.5,5.73,2.38,-34.4,28.2
2013-03-16 01:15:00,0.0,1.9413,0.0010,405.68,0.28,-1.0,0.0,138.08,29.54,24.65,36.42,0.04,-272.76,-272.76,-47,557,-941,22.9,1.0,-35.8,23.1,1.0,-35.6,5.73,2.39,-34.4,28.2
2013-03-16 01:16:00,0.0,1.9408,0.0009,405.69,0.26,-1.0,0.0,138.09,29.53,24.65,36.42,0.04,-272.76,-272.76,-47,557,-941,23.0,1.0,-35.8,23.1,1.1,-35.5,5.73,2.40,-34.4,28.2
2013-03-16 01:17:00,0.0,1.9405,0.0009,405.77,0.26,-1.0,0.0,138.08,29.53,24.65,36.42,0.04,-272.76,-272.76,-47,557,-941,22.9,1.0,-35.8,23.1,1.0,-35.5,5.73,2.41,-34.4,28.2
2013-03-16 01:18:00,0.0,1.9410,0.0011,405.78,0.27,-1.0,0.0,138.09,29.53,24.65,36.42,0.04,-272.76,-272.75,-47,557,-941,22.9,1.0,-35.8,23.1,1.1,-35.5,5.73,2.41,-34.4,28.2
2013-03-16 01:19:00,0.0,1.9403,0.0011,405.79,0.31,-1.0,0.0,138.08,29.52,24.65,36.41,0.04,-272.75,-272.76,-46,557,-941,22.9,1.0,-35.8,23.1,1.0,-35.5,5.73,2.43,-34.3,28.2
2013-03-16 01:20:00,0.0,1.9399,0.0010,405.84,0.25,-1.0,0.0,138.08,29.52,24.65,36.41,0.04,-272.76,-272.75,-47,557,-942,23.0,1.0,-36.1,23.1,1.1,-35.5,5.73,2.42,-34.3,28.2
2013-03-16 01:21:00,0.0,1.9407,0.0010,405.79,0.28,-1.0,0.0,138.09,29.52,24.65,36.41,0.04,-272.75,-272.76,-46,557,-942,22.9,1.0,-36.1,23.1,1.0,-35.6,5.73,2.42,-34.3,28.2
2013-03-16 01:22:00,0.0,1.9406,0.0011,405.76,0.24,-1.0,0.0,138.08,29.51,24.65,36.41,0.04,-272.75,-272.75,-47,557,-942,22.9,1.0,-36.1,23.0,1.0,-35.8,5.73,2.42,-34.3,28.2
2013-03-16 01:23:00,0.0,1.9414,0.0009,405.82,0.26,-1.0,0.0,138.08,29.51,24.65,36.41,0.04,-272.76,-272.76,-47,557,-942,22.9,1.0,-36.2,23.1,1.0,-35.8,5.73,2.41,-34.3,28.2
2013-03-16 01:24:00,0.0,1.9419,0.0009,405.74,0.25,-1.0,0.0,138.08,29.51,24.65,36.42,0.04,-272.75,-272.76,-47,557,-941,22.9,1.0,-36.4,23.1,1.0,-35.8,5.73,2.41,-34.2,28.2
2013-03-16 01:25:00,0.0,1.9421,0.0010,405.66,0.28,-1.0,0.0,138.08,29.51,24.65,36.42,0.04,-272.75,-272.75,-47,557,-941,22.9,1.0,-36.4,23.1,1.0,-35.8,5.73,2.40,-34.2,28.2
2013-03-16 01:26:00,0.0,1.9428,0.0009,405.83,0.23,-1.0,0.0,138.08,29.51,24.65,36.42,0.04,-272.76,-272.76,-46,557,-941,22.9,1.0,-36.2,23.1,1.0,-35.8,5.73,2.39,-34.2,28.2
2013-03-16 01:27:00,0.0,1.9425,0.0010,405.78,0.28,-1.0,0.0,138.08,29.51,24.65,36.42,0.04,-272.76,-272.76,-47,557,-941,22.9,1.0,-36.1,23.1,1.0,-35.7,5.73,2.38,-34.2,28.2
2013-03-16 01:28:00,0.0,1.9418,0.0010,405.81,0.30,-1.0,0.0,138.08,29.51,24.65,36.42,0.04,-272.75,-272.76,-47,557,-942,22.9,1.0,-36.1,23.1,1.0,-35.6,5.73,2.39,-34.2,28.2
2013-03-16 01:29:00,0.0,1.9417,0.0012,405.91,0.22,-1.0,0.0,138.08,29.50,24.65,36.41,0.04,-272.76,-272.75,-47,557,-942,22.9,1.0,-35.9,23.1,1.0,-35.5,5.73,2.39,-34.2,28.2
2013-03-16 01:30:00,0.0,1.9422,0.0010,405.76,0.28,-1.0,0.0,138.09,29.50,24.65,36.41,0.04,-272.76,-272.75,-47,557,-942,22.9,1.0,-35.8,23.1,1.0,-35.5,5.73,2.40,-34.1,28.2
2013-03-16 01:31:00,0.0,1.9421,0.0011,405.93,0.29,-1.0,0.0,138.08,29.50,24.65,36.41,0.04,-272.76,-272.76,-47,557,-941,23.0,1.0,-35.8,23.1,1.0,-35.6,5.73,2.40,-34.1,28.2
2013-03-16 01:32:00,0.0,1.9424,0.0009,405.87,0.31,-1.0,0.0,138.08,29.50,24.65,36.41,0.04,-272.76,-272.75,-47,557,-941,22.9,1.0,-35.8,23.1,1.0,-35.5,5.73,2.41,-34.1,28.3
2013-03-16 01:33:00,0.0,1.9424,0.0010,405.91,0.27,-1.0,0.0,138.08,29.50,24.65,36.41,0.04,-272.76,-272.76,-47,557,-941,22.9,1.0,-35.8,23.1,1.1,-35.3,5.73,2.42,-34.1,28.2
2013-03-16 01:34:00,0.0,1.9424,0.0011,405.82,0.26,-1.0,0.0,138.08,29.50,24.65,36.42,0.04,-272.76,-272.76,-47,557,-941,23.0,1.1,-35.5,23.1,1.1,-35.2,5.73,2.43,-34.1,28.2
2013-03-16 01:35:00,0.0,1.9420,0.0010,405.86,0.28,-1.0,0.0,138.08,29.49,24.65,36.41,0.04,-272.76,-272.75,-47,557,-942,23.0,1.0,-35.5,23.1,1.1,-35.2,5.73,2.42,-34.0,28.2
2013-03-16 01:36:00,0.0,1.9418,0.0009,405.92,0.26,-1.0,0.0,138.08,29.49,24.65,36.41,0.04,-272.76,-272.76,-47,557,-942,23.0,1.1,-35.5,23.1,1.1,-35.2,5.73,2.42,-34.0,28.2
2013-03-16 01:37:00,0.0,1.9419,0.0010,405.97,0.27,-1.0,0.0,138.08,29.49,24.65,36.41,0.04,-272.76,-272.76,-47,558,-942,23.0,1.0,-35.5,23.1,1.1,-35.0,5.73,2.42,-34.0,28.2
2013-03-16 01:38:00,0.0,1.9421,0.0010,405.80,0.26,-1.0,0.0,138.08,29.48,24.65,36.41,0.04,-272.75,-272.75,-47,557,-941,23.0,1.1,-35.3,23.1,1.1,-35.0,5.73,2.41,-34.0,28.2
2013-03-16 01:39:00,0.0,1.9420,0.0011,405.91,0.29,-1.0,0.0,138.09,29.48,24.65,36.41,0.04,-272.76,-272.75,-47,557,-941,23.0,1.1,-35.2,23.1,1.1,-34.8,5.73,2.41,-34.0,28.2
2013-03-16 01:40:00,0.0,1.9419,0.0010,405.84,0.31,-1.0,0.0,138.09,29.48,24.65,36.42,0.04,-272.76,-272.76,-47,557,-941,23.0,1.1,-35.2,23.1,1.1,-34.7,5.73,2.40,-34.0,28.2
2013-03-16 01:41:00,0.0,1.9417,0.0007,405.90,0.28,-1.0,0.0,138.08,29.48,24.65,36.41,0.04,-272.75,-272.75,-47,558,-942,23.0,1.1,-35.1,23.1,1.1,-34.7,5.73,2.39,-34.0,28.3
2013-03-16 01:42:00,0.0,1.9417,0.0011,405.87,0.31,-1.0,0.0,138.08,29.48,24.65,36.41,0.04,-272.75,-272.76,-47,558,-942,23.0,1.1,-35.0,23.1,1.1,-34.7,5.73,2.39,-34.0,28.3
2013-03-16 01:43:00,0.0,1.9418,0.0010,405.94,0.29,-1.0,0.0,138.08,29.48,24.65,36.41,0.04,-272.75,-272.76,-47,558,-942,23.0,1.1,-35.0,23.1,1.1,-34.7,5.73,2.39,-33.9,28.2
2013-03-16 01:44:00,0.0,1.9416,0.0010,405.97,0.26,-1.0,0.0,138.08,29.48,24.65,36.41,0.04,-272.75,-272.75,-47,558,-942,23.0,1.1,-35.0,23.1,1.1,-34.7,5.73,2.39,-33.9,28.2
2013-03-16 01:45:00,0.0,1.9418,0.0010,405.90,0.28,-1.0,0.0,138.08,29.47,24.65,36.42,0.04,-272.76,-272.75,-47,557,-941,23.0,1.1,-35.0,23.1,1.1,-34.7,5.73,2.39,-33.9,28.2
2013-03-16 01:46:00,0.0,1.9418,0.0009,405.97,0.25,-1.0,0.0,138.08,29.47,24.65,36.41,0.04,-272.76,-272.76,-47,557,-941,23.0,1.1,-35.0,23.1,1.2,-34.5,5.73,2.40,-33.9,28.2
2013-03-16 01:47:00,0.0,1.9422,0.0011,406.01,0.35,-1.0,0.0,138.08,29.47,24.65,36.41,0.04,-272.76,-272.75,-47,558,-941,23.0,1.1,-34.9,23.1,1.2,-34.5,5.73,2.41,-33.9,28.2
2013-03-16 01:48:00,0.0,1.9422,0.0010,405.91,0.26,-1.0,0.0,138.08,29.47,24.65,36.42,0.04,-272.75,-272.75,-47,558,-942,23.0,1.1,-34.8,23.1,1.2,-34.5,5.73,2.41,-33.8,28.3
2013-03-16 01:49:00,0.0,1.9424,0.0010,406.03,0.29,-1.0,0.0,138.08,29.47,24.65,36.40,0.04,-272.76,-272.76,-47,557,-942,23.0,1.1,-34.7,23.1,1.2,-34.2,5.73,2.41,-33.8,28.3
2013-03-16 01:50:00,0.0,1.9427,0.0010,405.99,0.29,-1.0,0.0,138.08,29.47,24.65,36.41,0.04,-272.75,-272.75,-47,558,-942,23.0,1.1,-34.8,23.1,1.2,-34.2,5.73,2.42,-33.8,28.3
2013-03-16 01:51:00,0.0,1.9429,0.0011,405.88,0.24,-1.0,0.0,138.08,29.47,24.65,36.42,0.04,-272.75,-272.75,-47,558,-942,23.0,1.1,-34.8,23.1,1.2,-34.2,5.73,2.43,-33.8,28.3
2013-03-16 01:52:00,0.0,1.9430,0.0009,405.94,0.28,-1.0,0.0,138.08,29.47,24.65,36.42,0.04,-272.75,-272.76,-47,558,-941,23.0,1.1,-34.8,23.1,1.2,-34.2,5.73,2.42,-33.8,28.3
2013-03-16 01:53:00,0.0,1.9425,0.0010,405.91,0.28,-1.0,0.0,138.08,29.46,24.65,36.41,0.04,-272.76,-272.76,-47,558,-941,23.0,1.1,-34.7,23.1,1.2,-34.3,5.73,2.42,-33.8,28.2
2013-03-16 01:54:00,0.0,1.9429,0.0009,406.09,0.31,-1.0,0.0,138.08,29.46,24.65,36.40,0.04,-272.76,-272.75,-47,558,-941,23.0,1.1,-34.6,23.1,1.2,-34.2,5.73,2.42,-33.7,28.2
2013-03-16 01:55:00,0.0,1.9425,0.0010,405.93,0.28,-1.0,0.0,138.08,29.46,24.65,36.42,0.04,-272.75,-272.76,-47,558,-942,23.0,1.2,-34.5,23.1,1.2,-34.0,5.73,2.41,-33.7,28.3
2013-03-16 01:56:00,0.0,1.9424,0.0009,406.00,0.23,-1.0,0.0,138.08,29.46,24.65,36.41,0.04,-272.75,-272.76,-47,558,-942,23.0,1.2,-34.5,23.1,1.2,-34.0,5.73,2.40,-33.7,28.3
2013-03-16 01:57:00,0.0,1.9425,0.0009,406.08,0.26,-1.0,0.0,138.08,29.46,24.65,36.41,0.04,-272.75,-272.75,-47,558,-942,23.0,1.2,-34.4,23.1,1.2,-34.0,5.73,2.40,-33.7,28.3
2013-03-16 01:58:00,0.0,1.9429,0.0010,406.02,0.25,-1.0,0.0,138.08,29.46,24.65,36.41,0.04,-272.75,-272.75,-47,557,-941,23.0,1.2,-34.3,23.1,1.2,-33.9,5.73,2.39,-33.7,28.3
2013-03-16 01:59:00,0.0,1.9425,0.0009,406.00,0.28,-1.0,0.0,138.08,29.46,24.65,36.41,0.04,-272.76,-272.75,-47,558,-941,23.0,1.2,-34.2,23.1,1.2,-33.7,5.73,2.39,-33.6,28.3
2013-03-16 02:00:00,1.0,1.9049,0.0267,388.91,12.04,-1.0,0.0,138.08,29.45,24.65,36.42,0.04,-272.75,-272.76,-47,616,-941,23.0,1.2,-34.0,23.1,1.2,-33.7,5.73,2.35,-33.6,28.3
2013-03-16 02:01:00,1.0,1.8746,0.0009,375.46,0.26,-1.0,0.0,138.08,29.45,24.65,36.42,0.04,-272.76,-272.76,-47,613,-942,23.0,1.2,-34.0,23.1,1.2,-33.8,5.73,2.39,-33.6,28.3
2013-03-16 02:02:00,1.0,1.8748,0.0008,375.47,0.24,-1.0,0.0,138.08,29.45,24.65,36.43,0.04,-272.75,-272.75,-47,613,-942,23.0,1.2,-34.2,23.1,1.2,-33.8,5.73,2.39,-33.6,28.3
2013-03-16 02:03:00,1.0,1.8746,0.0009,375.44,0.22,-1.0,0.0,138.08,29.45,24.66,36.43,0.04,-272.75,-272.76,-47,613,-942,23.0,1.2,-34.4,23.1,1.2,-33.9,5.73,2.40,-33.6,28.3
2013-03-16 02:04:00,1.0,1.8746,0.0011,375.44,0.22,-1.0,0.0,138.08,29.45,24.65,36.43,0.04,-272.75,-272.76,-47,612,-941,23.1,1.2,-34.5,23.2,1.2,-34.1,5.73,2.40,-33.5,28.3
2013-03-16 02:05:00,0.0,1.9122,0.0266,392.30,11.86,-1.0,0.0,138.08,29.45,24.65,36.42,0.04,-272.75,-272.76,-47,557,-941,23.1,1.1,-34.7,23.2,1.2,-34.3,5.73,2.40,-33.5,28.3
2013-03-16 02:06:00,0.0,1.9428,0.0010,405.88,0.32,-1.0,0.0,138.08,29.45,24.65,36.42,0.27,-270.85,-272.69,-47,557,-941,23.1,1.1,-34.7,23.2,1.2,-34.3,5.42,2.51,-37.2,28.3
2013-03-16 02:07:00,0.0,1.9418,0.0010,405.95,0.26,-1.0,0.0,138.08,29.45,24.65,36.41,0.04,-272.75,-272.75,-47,557,-941,23.1,1.1,-34.7,23.2,1.2,-34.4,5.73,2.42,-33.5,28.3
2013-03-16 02:08:00,0.0,1.9421,0.0012,405.90,0.27,-1.0,0.0,138.08,29.45,24.65,36.41,0.04,-272.75,-272.75,-47,557,-942,23.1,1.1,-34.6,23.2,1.2,-34.4,5.73,2.42,-33.5,28.3
2013-03-16 02:09:00,0.0,1.9420,0.0010,405.99,0.31,-1.0,0.0,138.08,29.45,24.65,36.41,0.04,-272.76,-272.76,-47,558,-942,23.1,1.2,-34.5,23.2,1.2,-34.3,5.73,2.42,-33.4,28.3
2013-03-16 02:10:00,0.0,1.9429,0.0010,406.01,0.28,-1.0,0.0,138.08,29.45,24.65,36.41,0.04,-272.76,-272.76,-47,558,-942,23.2,1.1,-34.7,23.2,1.2,-34.4,5.73,2.42,-33.4,28.4
2013-03-16 02:11:00,0.0,1.9427,0.0010,405.97,0.27,-1.0,0.0,138.08,29.45,24.65,36.41,0.04,-272.76,-272.75,-47,558,-941,23.1,1.1,-34.7,23.2,1.2,-34.4,5.73,2.41,-33.4,28.3
2013-03-16 02:12:00,0.0,1.9435,0.0009,406.03,0.25,-1.0,0.0,138.08,29.45,24.65,36.41,0.04,-272.75,-272.76,-47,558,-941,23.2,1.1,-34.6,23.2,1.2,-34.4,5.73,2.41,-33.4,28.4
2013-03-16 02:13:00,0.0,1.9429,0.0009,406.00,0.22,-1.0,0.0,138.08,29.45,24.65,36.41,0.04,-272.76,-272.75,-47,558,-941,23.2,1.1,-34.6,23.3,1.2,-34.4,5.73,2.41,-33.4,28.3
2013-03-16 02:14:00,0.0,1.9431,0.0010,406.00,0.23,-1.0,0.0,138.08,29.45,24.65,36.41,0.04,-272.75,-272.76,-47,558,-942,23.2,1.1,-34.6,23.3,1.2,-34.3,5.73,2.41,-33.4,28.3
2013-03-16 02:15:00,0.0,1.9433,0.0012,405.98,0.29,-1.0,0.0,138.08,29.45,24.65,36.42,0.04,-272.75,-272.75,-47,558,-942,23.2,1.1,-34.7,23.3,1.2,-34.4,5.73,2.40,-33.4,28.3
2013-03-16 02:16:00,0.0,1.9425,0.0010,406.06,0.29,-1.0,0.0,138.08,29.45,24.66,36.41,0.04,-272.75,-272.75,-47,558,-942,23.2,1.1,-34.6,23.3,1.2,-34.4,5.73,2.40,-33.4,28.3
2013-03-16 02:17:00,0.0,1.9428,0.0010,406.00,0.28,-1.0,0.0,138.08,29.45,24.65,36.41,0.04,-272.76,-272.76,-47,558,-941,23.2,1.2,-34.5,23.3,1.2,-34.2,5.73,2.39,-33.4,28.3
2013-03-16 02:18:00,0.0,1.9430,0.0010,406.01,0.29,-1.0,0.0,138.08,29.44,24.65,36.41,0.04,-272.75,-272.75,-47,558,-941,23.2,1.2,-34.4,23.3,1.2,-34.1,5.73,2.39,-33.4,28.4